Погода в Марибе

Йемен     15°25′05″N   45°20′05″E
темп.,
°C
ветер,
м/с
пор.,
м/с
влажн.,
%
обл.,
%
осадки,
мм/ч
давл.,
гПа
погр.,
м
17 мая, пн
пн1700:00+29з332729 0.0 100723
03:00+28зюз332882 0.0 100624
06:00+27юз11327 0.0 100911
09:00+32всв22235 0.0 10091244
12:00+35св321673 0.0 10073924
15:00+37всв541317 0.0 10044151
18:00+35в541330 0.0 10052980
21:00+33вюв361651 0.0 1007161
18 мая, вт
вт1800:00+32ю1217100 0.0 100715
03:00+29сз222266 0.0 100611
06:00+27зсз22345 0.0 100815
09:00+32зсз11245 0.0 10091157
12:00+36вюв42145 0.0 10064111
15:00+36вюв641199 0.0 10044206
18:00+35в7610100 0.0 10051777
21:00+32в4912100 0.0 1008222
19 мая, ср
ср1900:00+30ююз1213100 0.0 100712
03:00+28ссз441698 0.0 100729
06:00+27сз3331100 0.0 100931
09:00+32с2416100 0.0 1009985
12:00+36в46992 0.0 10074076
15:00+37св6685 0.0 10044462
18:00+35всв5685 0.0 10051019
21:00+31св34105 0.0 100857
20 мая, чт
чт2000:00+28юз12120 0.0 100811
03:00+27з22134 0.0 100711
06:00+26з11135 0.0 100911
09:00+32ссв2482 0.0 10101216
12:00+35св57623 0.0 10082944
15:00+36св6966 0.0 10063835
18:00+34в5671 0.0 1007371
21:00+30юз11101 0.0 100811
21 мая, пт
пт2100:00+28юв35197 0.0 100972
03:00+26юз11275 0.0 100911
06:00+25зсз012946 0.0 101111
09:00+32юв341340 0.0 10111268
12:00+35в551194 0.0 10093391
15:00+36всв661056 0.0 10073714
18:00+34всв771059 0.0 10071503
21:00+30в11155 0.0 100911